owner,sensor,date,latitude,longitude,vertical_datum,sea_water_temperature,qcFlag 
LUMCON,ioos:station:LUMCON:101:1,2017-07-01T00:00:00Z,29.2533,-90.6633,1.0,30.85,2 
LUMCON,ioos:station:LUMCON:101:1,2017-07-01T00:15:00Z,29.2533,-90.6633,1.0,30.84,2 
LUMCON,ioos:station:LUMCON:101:1,2017-07-01T00:30:00Z,29.2533,-90.6633,1.0,30.9,2 
LUMCON,ioos:station:LUMCON:101:1,2017-07-01T00:45:00Z,29.2533,-90.6633,1.0,30.94,2 
LUMCON,ioos:station:LUMCON:101:1,2017-07-01T01:00:00Z,29.2533,-90.6633,1.0,30.87,2 
LUMCON,ioos:station:LUMCON:101:1,2017-07-01T01:15:00Z,29.2533,-90.6633,1.0,30.84,2 
LUMCON,ioos:station:LUMCON:101:1,2017-07-01T01:30:00Z,29.2533,-90.6633,1.0,30.84,2 
LUMCON,ioos:station:LUMCON:101:1,2017-07-01T01:45:00Z,29.2533,-90.6633,1.0,30.71,2 
LUMCON,ioos:station:LUMCON:101:1,2017-07-01T02:00:00Z,29.2533,-90.6633,1.0,30.7,2 
LUMCON,ioos:station:LUMCON:101:1,2017-07-01T02:15:00Z,29.2533,-90.6633,1.0,30.67,2 
LUMCON,ioos:station:LUMCON:101:1,2017-07-01T02:30:00Z,29.2533,-90.6633,1.0,30.64,2 
LUMCON,ioos:station:LUMCON:101:1,2017-07-01T02:45:00Z,29.2533,-90.6633,1.0,30.62,2 
LUMCON,ioos:station:LUMCON:101:1,2017-07-01T03:00:00Z,29.2533,-90.6633,1.0,30.59,2 
LUMCON,ioos:station:LUMCON:101:1,2017-07-01T03:15:00Z,29.2533,-90.6633,1.0,30.57,2 
LUMCON,ioos:station:LUMCON:101:1,2017-07-01T03:30:00Z,29.2533,-90.6633,1.0,30.58,2 
LUMCON,ioos:station:LUMCON:101:1,2017-07-01T03:45:00Z,29.2533,-90.6633,1.0,30.56,2 
LUMCON,ioos:station:LUMCON:101:1,2017-07-01T04:00:00Z,29.2533,-90.6633,1.0,30.53,2 
LUMCON,ioos:station:LUMCON:101:1,2017-07-01T04:15:00Z,29.2533,-90.6633,1.0,30.51,2 
LUMCON,ioos:station:LUMCON:101:1,2017-07-01T04:30:00Z,29.2533,-90.6633,1.0,30.37,2 
LUMCON,ioos:station:LUMCON:101:1,2017-07-01T04:45:00Z,29.2533,-90.6633,1.0,30.43,2 
LUMCON,ioos:station:LUMCON:101:1,2017-07-01T05:00:00Z,29.2533,-90.6633,1.0,30.42,2 
LUMCON,ioos:station:LUMCON:101:1,2017-07-01T05:15:00Z,29.2533,-90.6633,1.0,30.31,2 
LUMCON,ioos:station:LUMCON:101:1,2017-07-01T05:30:00Z,29.2533,-90.6633,1.0,30.29,2 
LUMCON,ioos:station:LUMCON:101:1,2017-07-01T05:45:00Z,29.2533,-90.6633,1.0,30.17,2 
LUMCON,ioos:station:LUMCON:101:1,2017-07-01T06:00:00Z,29.2533,-90.6633,1.0,30.14,2 
LUMCON,ioos:station:LUMCON:101:1,2017-07-01T06:15:00Z,29.2533,-90.6633,1.0,30.17,2 
LUMCON,ioos:station:LUMCON:101:1,2017-07-01T06:30:00Z,29.2533,-90.6633,1.0,30.05,2 
LUMCON,ioos:station:LUMCON:101:1,2017-07-01T06:45:00Z,29.2533,-90.6633,1.0,30.15,2 
LUMCON,ioos:station:LUMCON:101:1,2017-07-01T07:00:00Z,29.2533,-90.6633,1.0,29.97,2 
LUMCON,ioos:station:LUMCON:101:1,2017-07-01T07:15:00Z,29.2533,-90.6633,1.0,29.77,2 
LUMCON,ioos:station:LUMCON:101:1,2017-07-01T07:30:00Z,29.2533,-90.6633,1.0,29.7,2 
LUMCON,ioos:station:LUMCON:101:1,2017-07-01T07:45:00Z,29.2533,-90.6633,1.0,29.5,2 
LUMCON,ioos:station:LUMCON:101:1,2017-07-01T08:00:00Z,29.2533,-90.6633,1.0,29.42,2 
LUMCON,ioos:station:LUMCON:101:1,2017-07-01T08:15:00Z,29.2533,-90.6633,1.0,29.4,2 
LUMCON,ioos:station:LUMCON:101:1,2017-07-01T08:30:00Z,29.2533,-90.6633,1.0,29.31,2 
LUMCON,ioos:station:LUMCON:101:1,2017-07-01T08:45:00Z,29.2533,-90.6633,1.0,29.29,2 
LUMCON,ioos:station:LUMCON:101:1,2017-07-01T09:00:00Z,29.2533,-90.6633,1.0,29.36,2 
LUMCON,ioos:station:LUMCON:101:1,2017-07-01T09:15:00Z,29.2533,-90.6633,1.0,29.44,2 
LUMCON,ioos:station:LUMCON:101:1,2017-07-01T09:30:00Z,29.2533,-90.6633,1.0,29.3,2 
LUMCON,ioos:station:LUMCON:101:1,2017-07-01T09:45:00Z,29.2533,-90.6633,1.0,29.19,2 
LUMCON,ioos:station:LUMCON:101:1,2017-07-01T10:00:00Z,29.2533,-90.6633,1.0,29.11,2 
LUMCON,ioos:station:LUMCON:101:1,2017-07-01T10:15:00Z,29.2533,-90.6633,1.0,29.1,2 
LUMCON,ioos:station:LUMCON:101:1,2017-07-01T10:30:00Z,29.2533,-90.6633,1.0,29.11,2 
LUMCON,ioos:station:LUMCON:101:1,2017-07-01T10:45:00Z,29.2533,-90.6633,1.0,29.1,2 
LUMCON,ioos:station:LUMCON:101:1,2017-07-01T11:00:00Z,29.2533,-90.6633,1.0,29.05,2 
LUMCON,ioos:station:LUMCON:101:1,2017-07-01T11:15:00Z,29.2533,-90.6633,1.0,29.01,2 
LUMCON,ioos:station:LUMCON:101:1,2017-07-01T11:30:00Z,29.2533,-90.6633,1.0,29.02,2 
LUMCON,ioos:station:LUMCON:101:1,2017-07-01T11:45:00Z,29.2533,-90.6633,1.0,29.1,2 
LUMCON,ioos:station:LUMCON:101:1,2017-07-01T12:00:00Z,29.2533,-90.6633,1.0,29.14,2 
LUMCON,ioos:station:LUMCON:101:1,2017-07-01T12:15:00Z,29.2533,-90.6633,1.0,29.13,2 
LUMCON,ioos:station:LUMCON:101:1,2017-07-01T12:30:00Z,29.2533,-90.6633,1.0,29.08,2 
LUMCON,ioos:station:LUMCON:101:1,2017-07-01T12:45:00Z,29.2533,-90.6633,1.0,29.01,2 
LUMCON,ioos:station:LUMCON:101:1,2017-07-01T13:00:00Z,29.2533,-90.6633,1.0,29.01,2 
LUMCON,ioos:station:LUMCON:101:1,2017-07-01T13:15:00Z,29.2533,-90.6633,1.0,29.0,2 
LUMCON,ioos:station:LUMCON:101:1,2017-07-01T13:30:00Z,29.2533,-90.6633,1.0,29.01,2 
LUMCON,ioos:station:LUMCON:101:1,2017-07-01T13:45:00Z,29.2533,-90.6633,1.0,29.02,2 
LUMCON,ioos:station:LUMCON:101:1,2017-07-01T14:00:00Z,29.2533,-90.6633,1.0,29.07,2 
LUMCON,ioos:station:LUMCON:101:1,2017-07-01T14:15:00Z,29.2533,-90.6633,1.0,29.21,2 
LUMCON,ioos:station:LUMCON:101:1,2017-07-01T14:30:00Z,29.2533,-90.6633,1.0,29.24,2 
LUMCON,ioos:station:LUMCON:101:1,2017-07-01T14:45:00Z,29.2533,-90.6633,1.0,29.28,2 
LUMCON,ioos:station:LUMCON:101:1,2017-07-01T15:00:00Z,29.2533,-90.6633,1.0,29.28,2 
LUMCON,ioos:station:LUMCON:101:1,2017-07-01T15:15:00Z,29.2533,-90.6633,1.0,29.33,2 
LUMCON,ioos:station:LUMCON:101:1,2017-07-01T15:30:00Z,29.2533,-90.6633,1.0,29.34,2 
LUMCON,ioos:station:LUMCON:101:1,2017-07-01T15:45:00Z,29.2533,-90.6633,1.0,29.35,2 
LUMCON,ioos:station:LUMCON:101:1,2017-07-01T16:00:00Z,29.2533,-90.6633,1.0,29.36,2 
LUMCON,ioos:station:LUMCON:101:1,2017-07-01T16:15:00Z,29.2533,-90.6633,1.0,29.39,2 
LUMCON,ioos:station:LUMCON:101:1,2017-07-01T16:30:00Z,29.2533,-90.6633,1.0,29.35,2 
LUMCON,ioos:station:LUMCON:101:1,2017-07-01T16:45:00Z,29.2533,-90.6633,1.0,29.36,2 
LUMCON,ioos:station:LUMCON:101:1,2017-07-01T17:00:00Z,29.2533,-90.6633,1.0,29.38,2 
LUMCON,ioos:station:LUMCON:101:1,2017-07-01T17:15:00Z,29.2533,-90.6633,1.0,29.41,2 
LUMCON,ioos:station:LUMCON:101:1,2017-07-01T17:30:00Z,29.2533,-90.6633,1.0,29.48,2 
LUMCON,ioos:station:LUMCON:101:1,2017-07-01T17:45:00Z,29.2533,-90.6633,1.0,30.02,2 
LUMCON,ioos:station:LUMCON:101:1,2017-07-01T18:00:00Z,29.2533,-90.6633,1.0,29.98,2 
LUMCON,ioos:station:LUMCON:101:1,2017-07-01T18:15:00Z,29.2533,-90.6633,1.0,30.55,2 
LUMCON,ioos:station:LUMCON:101:1,2017-07-01T18:30:00Z,29.2533,-90.6633,1.0,30.75,2 
LUMCON,ioos:station:LUMCON:101:1,2017-07-01T18:45:00Z,29.2533,-90.6633,1.0,30.8,2 
LUMCON,ioos:station:LUMCON:101:1,2017-07-01T19:00:00Z,29.2533,-90.6633,1.0,30.8,2 
LUMCON,ioos:station:LUMCON:101:1,2017-07-01T19:15:00Z,29.2533,-90.6633,1.0,30.77,2 
LUMCON,ioos:station:LUMCON:101:1,2017-07-01T19:30:00Z,29.2533,-90.6633,1.0,30.86,2 
LUMCON,ioos:station:LUMCON:101:1,2017-07-01T19:45:00Z,29.2533,-90.6633,1.0,30.88,2 
LUMCON,ioos:station:LUMCON:101:1,2017-07-01T20:00:00Z,29.2533,-90.6633,1.0,31.61,2 
LUMCON,ioos:station:LUMCON:101:1,2017-07-01T20:15:00Z,29.2533,-90.6633,1.0,31.74,2 
LUMCON,ioos:station:LUMCON:101:1,2017-07-01T20:30:00Z,29.2533,-90.6633,1.0,32.03,2 
LUMCON,ioos:station:LUMCON:101:1,2017-07-01T20:45:00Z,29.2533,-90.6633,1.0,32.03,2 
LUMCON,ioos:station:LUMCON:101:1,2017-07-01T21:00:00Z,29.2533,-90.6633,1.0,32.0,2 
LUMCON,ioos:station:LUMCON:101:1,2017-07-01T21:15:00Z,29.2533,-90.6633,1.0,32.06,2 
LUMCON,ioos:station:LUMCON:101:1,2017-07-01T21:30:00Z,29.2533,-90.6633,1.0,32.19,2 
LUMCON,ioos:station:LUMCON:101:1,2017-07-01T21:45:00Z,29.2533,-90.6633,1.0,32.36,2 
LUMCON,ioos:station:LUMCON:101:1,2017-07-01T22:00:00Z,29.2533,-90.6633,1.0,32.37,2 
LUMCON,ioos:station:LUMCON:101:1,2017-07-01T22:15:00Z,29.2533,-90.6633,1.0,32.57,2 
LUMCON,ioos:station:LUMCON:101:1,2017-07-01T22:30:00Z,29.2533,-90.6633,1.0,32.57,2 
LUMCON,ioos:station:LUMCON:101:1,2017-07-01T22:45:00Z,29.2533,-90.6633,1.0,32.56,2 
LUMCON,ioos:station:LUMCON:101:1,2017-07-01T23:00:00Z,29.2533,-90.6633,1.0,32.58,2 
LUMCON,ioos:station:LUMCON:101:1,2017-07-01T23:15:00Z,29.2533,-90.6633,1.0,32.58,2 
LUMCON,ioos:station:LUMCON:101:1,2017-07-01T23:30:00Z,29.2533,-90.6633,1.0,32.59,2 
LUMCON,ioos:station:LUMCON:101:1,2017-07-01T23:45:00Z,29.2533,-90.6633,1.0,32.4,2 
LUMCON,ioos:station:LUMCON:101:1,2017-07-02T00:00:00Z,29.2533,-90.6633,1.0,32.52,2 
LUMCON,ioos:station:LUMCON:101:1,2017-07-02T00:15:00Z,29.2533,-90.6633,1.0,32.37,2 
LUMCON,ioos:station:LUMCON:101:1,2017-07-02T00:30:00Z,29.2533,-90.6633,1.0,32.29,2 
LUMCON,ioos:station:LUMCON:101:1,2017-07-02T00:45:00Z,29.2533,-90.6633,1.0,32.31,2 
LUMCON,ioos:station:LUMCON:101:1,2017-07-02T01:00:00Z,29.2533,-90.6633,1.0,32.21,2 
LUMCON,ioos:station:LUMCON:101:1,2017-07-02T01:15:00Z,29.2533,-90.6633,1.0,32.22,2 
LUMCON,ioos:station:LUMCON:101:1,2017-07-02T01:30:00Z,29.2533,-90.6633,1.0,32.13,2 
LUMCON,ioos:station:LUMCON:101:1,2017-07-02T01:45:00Z,29.2533,-90.6633,1.0,32.11,2 
LUMCON,ioos:station:LUMCON:101:1,2017-07-02T02:00:00Z,29.2533,-90.6633,1.0,32.1,2 
LUMCON,ioos:station:LUMCON:101:1,2017-07-02T02:15:00Z,29.2533,-90.6633,1.0,32.08,2 
LUMCON,ioos:station:LUMCON:101:1,2017-07-02T02:30:00Z,29.2533,-90.6633,1.0,32.06,2 
LUMCON,ioos:station:LUMCON:101:1,2017-07-02T02:45:00Z,29.2533,-90.6633,1.0,32.05,2 
LUMCON,ioos:station:LUMCON:101:1,2017-07-02T03:00:00Z,29.2533,-90.6633,1.0,31.96,2 
LUMCON,ioos:station:LUMCON:101:1,2017-07-02T03:15:00Z,29.2533,-90.6633,1.0,31.92,2 
LUMCON,ioos:station:LUMCON:101:1,2017-07-02T03:30:00Z,29.2533,-90.6633,1.0,31.6,2 
LUMCON,ioos:station:LUMCON:101:1,2017-07-02T03:45:00Z,29.2533,-90.6633,1.0,31.64,2 
LUMCON,ioos:station:LUMCON:101:1,2017-07-02T04:00:00Z,29.2533,-90.6633,1.0,31.42,2 
LUMCON,ioos:station:LUMCON:101:1,2017-07-02T04:15:00Z,29.2533,-90.6633,1.0,31.35,2 
LUMCON,ioos:station:LUMCON:101:1,2017-07-02T04:30:00Z,29.2533,-90.6633,1.0,31.24,2 
LUMCON,ioos:station:LUMCON:101:1,2017-07-02T04:45:00Z,29.2533,-90.6633,1.0,31.21,2 
LUMCON,ioos:station:LUMCON:101:1,2017-07-02T05:00:00Z,29.2533,-90.6633,1.0,31.19,2 
LUMCON,ioos:station:LUMCON:101:1,2017-07-02T05:15:00Z,29.2533,-90.6633,1.0,30.93,2 
LUMCON,ioos:station:LUMCON:101:1,2017-07-02T05:30:00Z,29.2533,-90.6633,1.0,31.31,2 
LUMCON,ioos:station:LUMCON:101:1,2017-07-02T05:45:00Z,29.2533,-90.6633,1.0,31.3,2 
LUMCON,ioos:station:LUMCON:101:1,2017-07-02T06:00:00Z,29.2533,-90.6633,1.0,31.22,2 
LUMCON,ioos:station:LUMCON:101:1,2017-07-02T06:15:00Z,29.2533,-90.6633,1.0,31.18,2 
LUMCON,ioos:station:LUMCON:101:1,2017-07-02T06:30:00Z,29.2533,-90.6633,1.0,31.06,2 
LUMCON,ioos:station:LUMCON:101:1,2017-07-02T06:45:00Z,29.2533,-90.6633,1.0,31.01,2 
LUMCON,ioos:station:LUMCON:101:1,2017-07-02T07:00:00Z,29.2533,-90.6633,1.0,31.01,2 
LUMCON,ioos:station:LUMCON:101:1,2017-07-02T07:15:00Z,29.2533,-90.6633,1.0,30.98,2 
LUMCON,ioos:station:LUMCON:101:1,2017-07-02T07:30:00Z,29.2533,-90.6633,1.0,30.91,2 
LUMCON,ioos:station:LUMCON:101:1,2017-07-02T07:45:00Z,29.2533,-90.6633,1.0,30.92,2 
LUMCON,ioos:station:LUMCON:101:1,2017-07-02T08:00:00Z,29.2533,-90.6633,1.0,30.87,2 
LUMCON,ioos:station:LUMCON:101:1,2017-07-02T08:15:00Z,29.2533,-90.6633,1.0,30.85,2 
LUMCON,ioos:station:LUMCON:101:1,2017-07-02T08:30:00Z,29.2533,-90.6633,1.0,30.89,2 
LUMCON,ioos:station:LUMCON:101:1,2017-07-02T08:45:00Z,29.2533,-90.6633,1.0,30.75,2 
LUMCON,ioos:station:LUMCON:101:1,2017-07-02T09:00:00Z,29.2533,-90.6633,1.0,30.62,2 
LUMCON,ioos:station:LUMCON:101:1,2017-07-02T09:15:00Z,29.2533,-90.6633,1.0,30.47,2 
LUMCON,ioos:station:LUMCON:101:1,2017-07-02T09:30:00Z,29.2533,-90.6633,1.0,30.57,2 
LUMCON,ioos:station:LUMCON:101:1,2017-07-02T09:45:00Z,29.2533,-90.6633,1.0,30.39,2 
LUMCON,ioos:station:LUMCON:101:1,2017-07-02T10:00:00Z,29.2533,-90.6633,1.0,30.42,2 
LUMCON,ioos:station:LUMCON:101:1,2017-07-02T10:15:00Z,29.2533,-90.6633,1.0,30.42,2 
LUMCON,ioos:station:LUMCON:101:1,2017-07-02T10:30:00Z,29.2533,-90.6633,1.0,30.31,2 
LUMCON,ioos:station:LUMCON:101:1,2017-07-02T10:45:00Z,29.2533,-90.6633,1.0,30.46,2 
LUMCON,ioos:station:LUMCON:101:1,2017-07-02T11:00:00Z,29.2533,-90.6633,1.0,30.15,2 
LUMCON,ioos:station:LUMCON:101:1,2017-07-02T11:15:00Z,29.2533,-90.6633,1.0,30.3,2 
LUMCON,ioos:station:LUMCON:101:1,2017-07-02T11:30:00Z,29.2533,-90.6633,1.0,30.39,2 
LUMCON,ioos:station:LUMCON:101:1,2017-07-02T11:45:00Z,29.2533,-90.6633,1.0,30.26,2 
LUMCON,ioos:station:LUMCON:101:1,2017-07-02T12:00:00Z,29.2533,-90.6633,1.0,30.07,2 
LUMCON,ioos:station:LUMCON:101:1,2017-07-02T12:15:00Z,29.2533,-90.6633,1.0,30.04,2 
LUMCON,ioos:station:LUMCON:101:1,2017-07-02T12:30:00Z,29.2533,-90.6633,1.0,29.99,2 
LUMCON,ioos:station:LUMCON:101:1,2017-07-02T12:45:00Z,29.2533,-90.6633,1.0,29.89,2 
LUMCON,ioos:station:LUMCON:101:1,2017-07-02T13:00:00Z,29.2533,-90.6633,1.0,29.87,2 
LUMCON,ioos:station:LUMCON:101:1,2017-07-02T13:15:00Z,29.2533,-90.6633,1.0,29.84,2 
LUMCON,ioos:station:LUMCON:101:1,2017-07-02T13:30:00Z,29.2533,-90.6633,1.0,29.87,2 
LUMCON,ioos:station:LUMCON:101:1,2017-07-02T13:45:00Z,29.2533,-90.6633,1.0,29.88,2 
LUMCON,ioos:station:LUMCON:101:1,2017-07-02T14:00:00Z,29.2533,-90.6633,1.0,29.88,2 
LUMCON,ioos:station:LUMCON:101:1,2017-07-02T14:15:00Z,29.2533,-90.6633,1.0,29.88,2 
LUMCON,ioos:station:LUMCON:101:1,2017-07-02T14:30:00Z,29.2533,-90.6633,1.0,29.89,2 
LUMCON,ioos:station:LUMCON:101:1,2017-07-02T14:45:00Z,29.2533,-90.6633,1.0,29.9,2 
LUMCON,ioos:station:LUMCON:101:1,2017-07-02T15:00:00Z,29.2533,-90.6633,1.0,29.89,2 
LUMCON,ioos:station:LUMCON:101:1,2017-07-02T15:15:00Z,29.2533,-90.6633,1.0,29.99,2 
LUMCON,ioos:station:LUMCON:101:1,2017-07-02T15:30:00Z,29.2533,-90.6633,1.0,30.33,2 
LUMCON,ioos:station:LUMCON:101:1,2017-07-02T15:45:00Z,29.2533,-90.6633,1.0,30.36,2 
LUMCON,ioos:station:LUMCON:101:1,2017-07-02T16:00:00Z,29.2533,-90.6633,1.0,30.65,2 
LUMCON,ioos:station:LUMCON:101:1,2017-07-02T16:15:00Z,29.2533,-90.6633,1.0,30.66,2 
LUMCON,ioos:station:LUMCON:101:1,2017-07-02T16:30:00Z,29.2533,-90.6633,1.0,30.78,2 
LUMCON,ioos:station:LUMCON:101:1,2017-07-02T16:45:00Z,29.2533,-90.6633,1.0,30.99,2 
LUMCON,ioos:station:LUMCON:101:1,2017-07-02T17:00:00Z,29.2533,-90.6633,1.0,31.26,2 
LUMCON,ioos:station:LUMCON:101:1,2017-07-02T17:15:00Z,29.2533,-90.6633,1.0,31.43,2 
LUMCON,ioos:station:LUMCON:101:1,2017-07-02T17:30:00Z,29.2533,-90.6633,1.0,31.59,2 
LUMCON,ioos:station:LUMCON:101:1,2017-07-02T17:45:00Z,29.2533,-90.6633,1.0,31.83,2 
LUMCON,ioos:station:LUMCON:101:1,2017-07-02T18:00:00Z,29.2533,-90.6633,1.0,32.04,2 
LUMCON,ioos:station:LUMCON:101:1,2017-07-02T18:15:00Z,29.2533,-90.6633,1.0,32.24,2 
LUMCON,ioos:station:LUMCON:101:1,2017-07-02T18:30:00Z,29.2533,-90.6633,1.0,32.41,2 
LUMCON,ioos:station:LUMCON:101:1,2017-07-02T18:45:00Z,29.2533,-90.6633,1.0,32.6,2 
LUMCON,ioos:station:LUMCON:101:1,2017-07-02T19:00:00Z,29.2533,-90.6633,1.0,32.78,2 
LUMCON,ioos:station:LUMCON:101:1,2017-07-02T19:15:00Z,29.2533,-90.6633,1.0,32.9,2 
LUMCON,ioos:station:LUMCON:101:1,2017-07-02T19:30:00Z,29.2533,-90.6633,1.0,33.0,2 
LUMCON,ioos:station:LUMCON:101:1,2017-07-02T19:45:00Z,29.2533,-90.6633,1.0,33.15,2 
LUMCON,ioos:station:LUMCON:101:1,2017-07-02T20:00:00Z,29.2533,-90.6633,1.0,33.21,2 
LUMCON,ioos:station:LUMCON:101:1,2017-07-02T20:15:00Z,29.2533,-90.6633,1.0,33.26,2 
LUMCON,ioos:station:LUMCON:101:1,2017-07-02T20:30:00Z,29.2533,-90.6633,1.0,33.28,2 
LUMCON,ioos:station:LUMCON:101:1,2017-07-02T20:45:00Z,29.2533,-90.6633,1.0,33.22,2 
LUMCON,ioos:station:LUMCON:101:1,2017-07-02T21:00:00Z,29.2533,-90.6633,1.0,33.31,2 
LUMCON,ioos:station:LUMCON:101:1,2017-07-02T21:15:00Z,29.2533,-90.6633,1.0,33.38,2 
LUMCON,ioos:station:LUMCON:101:1,2017-07-02T21:30:00Z,29.2533,-90.6633,1.0,33.37,2 
LUMCON,ioos:station:LUMCON:101:1,2017-07-02T21:45:00Z,29.2533,-90.6633,1.0,33.33,2 
LUMCON,ioos:station:LUMCON:101:1,2017-07-02T22:00:00Z,29.2533,-90.6633,1.0,33.28,2 
LUMCON,ioos:station:LUMCON:101:1,2017-07-02T22:15:00Z,29.2533,-90.6633,1.0,33.29,2 
LUMCON,ioos:station:LUMCON:101:1,2017-07-02T22:30:00Z,29.2533,-90.6633,1.0,33.27,2 
LUMCON,ioos:station:LUMCON:101:1,2017-07-02T22:45:00Z,29.2533,-90.6633,1.0,33.34,2 
LUMCON,ioos:station:LUMCON:101:1,2017-07-02T23:00:00Z,29.2533,-90.6633,1.0,33.34,2 
LUMCON,ioos:station:LUMCON:101:1,2017-07-02T23:15:00Z,29.2533,-90.6633,1.0,33.32,2 
LUMCON,ioos:station:LUMCON:101:1,2017-07-02T23:30:00Z,29.2533,-90.6633,1.0,33.25,2 
LUMCON,ioos:station:LUMCON:101:1,2017-07-02T23:45:00Z,29.2533,-90.6633,1.0,33.23,2 
LUMCON,ioos:station:LUMCON:101:1,2017-07-03T00:00:00Z,29.2533,-90.6633,1.0,33.25,2 
LUMCON,ioos:station:LUMCON:101:1,2017-07-03T00:15:00Z,29.2533,-90.6633,1.0,33.21,2 
LUMCON,ioos:station:LUMCON:101:1,2017-07-03T00:30:00Z,29.2533,-90.6633,1.0,33.2,2 
LUMCON,ioos:station:LUMCON:101:1,2017-07-03T00:45:00Z,29.2533,-90.6633,1.0,33.13,2 
LUMCON,ioos:station:LUMCON:101:1,2017-07-03T01:00:00Z,29.2533,-90.6633,1.0,33.04,2 
LUMCON,ioos:station:LUMCON:101:1,2017-07-03T01:15:00Z,29.2533,-90.6633,1.0,33.03,2 
LUMCON,ioos:station:LUMCON:101:1,2017-07-03T01:30:00Z,29.2533,-90.6633,1.0,32.92,2 
LUMCON,ioos:station:LUMCON:101:1,2017-07-03T01:45:00Z,29.2533,-90.6633,1.0,32.8,2 
LUMCON,ioos:station:LUMCON:101:1,2017-07-03T02:00:00Z,29.2533,-90.6633,1.0,32.62,2 
LUMCON,ioos:station:LUMCON:101:1,2017-07-03T02:15:00Z,29.2533,-90.6633,1.0,32.52,2 
LUMCON,ioos:station:LUMCON:101:1,2017-07-03T02:30:00Z,29.2533,-90.6633,1.0,32.46,2 
LUMCON,ioos:station:LUMCON:101:1,2017-07-03T02:45:00Z,29.2533,-90.6633,1.0,32.33,2 
LUMCON,ioos:station:LUMCON:101:1,2017-07-03T03:00:00Z,29.2533,-90.6633,1.0,32.26,2 
LUMCON,ioos:station:LUMCON:101:1,2017-07-03T03:15:00Z,29.2533,-90.6633,1.0,32.09,2 
LUMCON,ioos:station:LUMCON:101:1,2017-07-03T03:30:00Z,29.2533,-90.6633,1.0,32.03,2 
LUMCON,ioos:station:LUMCON:101:1,2017-07-03T03:45:00Z,29.2533,-90.6633,1.0,31.92,2 
LUMCON,ioos:station:LUMCON:101:1,2017-07-03T04:00:00Z,29.2533,-90.6633,1.0,31.85,2 
LUMCON,ioos:station:LUMCON:101:1,2017-07-03T04:15:00Z,29.2533,-90.6633,1.0,31.84,2 
LUMCON,ioos:station:LUMCON:101:1,2017-07-03T04:30:00Z,29.2533,-90.6633,1.0,31.87,2 
LUMCON,ioos:station:LUMCON:101:1,2017-07-03T04:45:00Z,29.2533,-90.6633,1.0,31.91,2 
LUMCON,ioos:station:LUMCON:101:1,2017-07-03T05:00:00Z,29.2533,-90.6633,1.0,31.85,2 
LUMCON,ioos:station:LUMCON:101:1,2017-07-03T05:15:00Z,29.2533,-90.6633,1.0,31.84,2 
LUMCON,ioos:station:LUMCON:101:1,2017-07-03T05:30:00Z,29.2533,-90.6633,1.0,31.82,2 
LUMCON,ioos:station:LUMCON:101:1,2017-07-03T05:45:00Z,29.2533,-90.6633,1.0,31.79,2 
LUMCON,ioos:station:LUMCON:101:1,2017-07-03T06:00:00Z,29.2533,-90.6633,1.0,31.77,2 
LUMCON,ioos:station:LUMCON:101:1,2017-07-03T06:15:00Z,29.2533,-90.6633,1.0,31.69,2 
LUMCON,ioos:station:LUMCON:101:1,2017-07-03T06:30:00Z,29.2533,-90.6633,1.0,31.6,2 
LUMCON,ioos:station:LUMCON:101:1,2017-07-03T06:45:00Z,29.2533,-90.6633,1.0,31.56,2 
LUMCON,ioos:station:LUMCON:101:1,2017-07-03T07:00:00Z,29.2533,-90.6633,1.0,31.46,2 
LUMCON,ioos:station:LUMCON:101:1,2017-07-03T07:15:00Z,29.2533,-90.6633,1.0,31.38,2 
LUMCON,ioos:station:LUMCON:101:1,2017-07-03T07:30:00Z,29.2533,-90.6633,1.0,31.29,2 
LUMCON,ioos:station:LUMCON:101:1,2017-07-03T07:45:00Z,29.2533,-90.6633,1.0,31.28,2 
LUMCON,ioos:station:LUMCON:101:1,2017-07-03T08:00:00Z,29.2533,-90.6633,1.0,31.26,2 
LUMCON,ioos:station:LUMCON:101:1,2017-07-03T08:15:00Z,29.2533,-90.6633,1.0,31.24,2 
LUMCON,ioos:station:LUMCON:101:1,2017-07-03T08:30:00Z,29.2533,-90.6633,1.0,31.21,2 
LUMCON,ioos:station:LUMCON:101:1,2017-07-03T08:45:00Z,29.2533,-90.6633,1.0,31.13,2 
LUMCON,ioos:station:LUMCON:101:1,2017-07-03T09:00:00Z,29.2533,-90.6633,1.0,31.05,2 
LUMCON,ioos:station:LUMCON:101:1,2017-07-03T09:15:00Z,29.2533,-90.6633,1.0,31.0,2 
LUMCON,ioos:station:LUMCON:101:1,2017-07-03T09:30:00Z,29.2533,-90.6633,1.0,30.96,2 
LUMCON,ioos:station:LUMCON:101:1,2017-07-03T09:45:00Z,29.2533,-90.6633,1.0,30.96,2 
LUMCON,ioos:station:LUMCON:101:1,2017-07-03T10:00:00Z,29.2533,-90.6633,1.0,30.94,2 
LUMCON,ioos:station:LUMCON:101:1,2017-07-03T10:15:00Z,29.2533,-90.6633,1.0,30.87,2 
LUMCON,ioos:station:LUMCON:101:1,2017-07-03T10:30:00Z,29.2533,-90.6633,1.0,30.82,2 
LUMCON,ioos:station:LUMCON:101:1,2017-07-03T10:45:00Z,29.2533,-90.6633,1.0,30.78,2 
LUMCON,ioos:station:LUMCON:101:1,2017-07-03T11:00:00Z,29.2533,-90.6633,1.0,30.76,2 
LUMCON,ioos:station:LUMCON:101:1,2017-07-03T11:15:00Z,29.2533,-90.6633,1.0,30.75,2 
LUMCON,ioos:station:LUMCON:101:1,2017-07-03T11:30:00Z,29.2533,-90.6633,1.0,30.69,2 
LUMCON,ioos:station:LUMCON:101:1,2017-07-03T11:45:00Z,29.2533,-90.6633,1.0,30.7,2 
LUMCON,ioos:station:LUMCON:101:1,2017-07-03T12:00:00Z,29.2533,-90.6633,1.0,30.66,2 
LUMCON,ioos:station:LUMCON:101:1,2017-07-03T12:15:00Z,29.2533,-90.6633,1.0,30.61,2 
LUMCON,ioos:station:LUMCON:101:1,2017-07-03T12:30:00Z,29.2533,-90.6633,1.0,30.57,2 
LUMCON,ioos:station:LUMCON:101:1,2017-07-03T12:45:00Z,29.2533,-90.6633,1.0,30.54,2 
LUMCON,ioos:station:LUMCON:101:1,2017-07-03T13:00:00Z,29.2533,-90.6633,1.0,30.52,2 
LUMCON,ioos:station:LUMCON:101:1,2017-07-03T13:15:00Z,29.2533,-90.6633,1.0,30.53,2 
LUMCON,ioos:station:LUMCON:101:1,2017-07-03T13:30:00Z,29.2533,-90.6633,1.0,30.53,2 
LUMCON,ioos:station:LUMCON:101:1,2017-07-03T13:45:00Z,29.2533,-90.6633,1.0,30.52,2 
LUMCON,ioos:station:LUMCON:101:1,2017-07-03T14:00:00Z,29.2533,-90.6633,1.0,30.53,2 
LUMCON,ioos:station:LUMCON:101:1,2017-07-03T14:15:00Z,29.2533,-90.6633,1.0,30.54,2 
LUMCON,ioos:station:LUMCON:101:1,2017-07-03T14:30:00Z,29.2533,-90.6633,1.0,30.66,2 
LUMCON,ioos:station:LUMCON:101:1,2017-07-03T14:45:00Z,29.2533,-90.6633,1.0,30.65,2 
LUMCON,ioos:station:LUMCON:101:1,2017-07-03T15:00:00Z,29.2533,-90.6633,1.0,30.65,2 
LUMCON,ioos:station:LUMCON:101:1,2017-07-03T15:15:00Z,29.2533,-90.6633,1.0,30.63,2 
LUMCON,ioos:station:LUMCON:101:1,2017-07-03T15:30:00Z,29.2533,-90.6633,1.0,30.83,2 
LUMCON,ioos:station:LUMCON:101:1,2017-07-03T15:45:00Z,29.2533,-90.6633,1.0,31.03,2 
LUMCON,ioos:station:LUMCON:101:1,2017-07-03T16:00:00Z,29.2533,-90.6633,1.0,30.99,2 
LUMCON,ioos:station:LUMCON:101:1,2017-07-03T16:15:00Z,29.2533,-90.6633,1.0,30.99,2 
LUMCON,ioos:station:LUMCON:101:1,2017-07-03T16:30:00Z,29.2533,-90.6633,1.0,31.06,2 
LUMCON,ioos:station:LUMCON:101:1,2017-07-03T16:45:00Z,29.2533,-90.6633,1.0,31.14,2 
LUMCON,ioos:station:LUMCON:101:1,2017-07-03T17:00:00Z,29.2533,-90.6633,1.0,31.34,2 
LUMCON,ioos:station:LUMCON:101:1,2017-07-03T17:15:00Z,29.2533,-90.6633,1.0,31.6,2 
LUMCON,ioos:station:LUMCON:101:1,2017-07-03T17:30:00Z,29.2533,-90.6633,1.0,31.76,2 
LUMCON,ioos:station:LUMCON:101:1,2017-07-03T17:45:00Z,29.2533,-90.6633,1.0,31.92,2 
LUMCON,ioos:station:LUMCON:101:1,2017-07-03T18:00:00Z,29.2533,-90.6633,1.0,32.07,2 
LUMCON,ioos:station:LUMCON:101:1,2017-07-03T18:15:00Z,29.2533,-90.6633,1.0,32.26,2 
LUMCON,ioos:station:LUMCON:101:1,2017-07-03T18:30:00Z,29.2533,-90.6633,1.0,32.47,2 
LUMCON,ioos:station:LUMCON:101:1,2017-07-03T18:45:00Z,29.2533,-90.6633,1.0,32.5,2 
LUMCON,ioos:station:LUMCON:101:1,2017-07-03T19:00:00Z,29.2533,-90.6633,1.0,32.69,2 
LUMCON,ioos:station:LUMCON:101:1,2017-07-03T19:15:00Z,29.2533,-90.6633,1.0,32.84,2 
LUMCON,ioos:station:LUMCON:101:1,2017-07-03T19:30:00Z,29.2533,-90.6633,1.0,32.93,2 
LUMCON,ioos:station:LUMCON:101:1,2017-07-03T19:45:00Z,29.2533,-90.6633,1.0,33.07,2 
LUMCON,ioos:station:LUMCON:101:1,2017-07-03T20:00:00Z,29.2533,-90.6633,1.0,33.25,2 
LUMCON,ioos:station:LUMCON:101:1,2017-07-03T20:15:00Z,29.2533,-90.6633,1.0,33.26,2 
LUMCON,ioos:station:LUMCON:101:1,2017-07-03T20:30:00Z,29.2533,-90.6633,1.0,33.37,2 
LUMCON,ioos:station:LUMCON:101:1,2017-07-03T20:45:00Z,29.2533,-90.6633,1.0,33.46,2 
LUMCON,ioos:station:LUMCON:101:1,2017-07-03T21:00:00Z,29.2533,-90.6633,1.0,33.49,2 
LUMCON,ioos:station:LUMCON:101:1,2017-07-03T21:15:00Z,29.2533,-90.6633,1.0,33.56,2 
LUMCON,ioos:station:LUMCON:101:1,2017-07-03T21:30:00Z,29.2533,-90.6633,1.0,33.57,2 
LUMCON,ioos:station:LUMCON:101:1,2017-07-03T21:45:00Z,29.2533,-90.6633,1.0,33.68,2 
LUMCON,ioos:station:LUMCON:101:1,2017-07-03T22:00:00Z,29.2533,-90.6633,1.0,33.74,2 
LUMCON,ioos:station:LUMCON:101:1,2017-07-03T22:15:00Z,29.2533,-90.6633,1.0,33.76,2 
LUMCON,ioos:station:LUMCON:101:1,2017-07-03T22:30:00Z,29.2533,-90.6633,1.0,33.68,2 
LUMCON,ioos:station:LUMCON:101:1,2017-07-03T22:45:00Z,29.2533,-90.6633,1.0,33.67,2 
LUMCON,ioos:station:LUMCON:101:1,2017-07-03T23:00:00Z,29.2533,-90.6633,1.0,33.74,2 